カタログに戻る

FENGYUN 1C DEB

運用中PO
NORAD 37474·DEBRIS·🇨🇳 China

打ち上げ May 10, 1999 から Taiyuan Satellite Launch Center

Loading…

次のパス (今後24時間)

TLE

古いSource: Space-Track

元期: Sep 2, 2026, 21:59 UTC

1 37474U 99025EJU 26245.91659330  .00005276  00000-0  62461-3 0  9997
2 37474  99.1357 131.7867 0122970  31.1506 329.6916 14.79800731662775

AllMySatでFENGYUN 1C DEBをリアルタイム追跡

Download on the App Store